Location: Boiro
(42.6475°N, 8.8834°W)
Time: 16:22:40
(UTC+02:00)

FALCONSAT-6 - Visible Passes

Search period start: 03 July 2022 00:00
Search period end: 13 July 2022 00:00
Orbit: 556 x 586 km, 97.6° (Epoch: 02 July)

Date Brightness Start Highest point End Pass type
(mag) Time Alt. Az. Time Alt. Az. Time Alt. Az.
03 Jul ? 00:08:28 27° SSE 00:10:39 86° E 00:14:50 10° NNW visible
04 Jul ? 00:10:44 28° SSE 00:12:53 89° SW 00:17:04 10° NNW visible
05 Jul ? 00:13:01 28° S 00:15:08 85° WSW 00:19:18 10° NNW visible
06 Jul ? 00:15:18 29° S 00:17:22 80° WSW 00:21:32 10° NNW visible
07 Jul ? 00:17:35 29° S 00:19:36 75° WSW 00:23:46 10° NNW visible
08 Jul ? 00:19:52 30° S 00:21:51 71° W 00:25:59 10° NNW visible
08 Jul ? 22:47:57 10° E 22:49:29 12° ENE 22:51:01 10° NE visible
09 Jul ? 00:22:10 30° S 00:24:05 66° W 00:28:13 10° NNW visible
09 Jul ? 22:49:56 10° E 22:51:42 12° ENE 22:53:27 10° NE visible
10 Jul ? 00:24:26 30° S 00:26:20 62° W 00:30:26 10° NNW visible
10 Jul ? 22:51:57 10° E 22:53:54 13° ENE 22:55:51 10° NE visible
11 Jul ? 00:26:44 30° SSW 00:28:34 58° W 00:32:39 10° NNW visible
11 Jul ? 22:54:00 10° E 22:56:07 14° ENE 22:58:13 10° NNE visible
12 Jul ? 00:29:01 30° SSW 00:30:48 55° W 00:34:51 10° NNW visible
12 Jul ? 22:56:03 10° E 22:58:19 15° ENE 23:00:35 10° NNE visible
